Regional Weather Roundup
Issued by NWS

Home | Current Version | Previous Version | Graphics & Text | Print | Product List | Glossary On
Versions: 1 2 3 4 5 6 7 8 9 10 11 12 13 14 15 16 17 18 19 20 21 22 23 24 25 26 27 28 29 30 31 32 33 34 35 36 37 38 39 40 41 42 43 44 45 46 47 48 49 50
318
ASUS44 KLIX 261807
RWRLA
LOUISIANA WEATHER ROUNDUP
NATIONAL WEATHER SERVICE NEW ORLEANS LA
100 PM CDT THU MAR 26 2015

NOTE: "FAIR" INDICATES FEW OR NO CLOUDS BELOW 12,000 FEET WITH NO
      SIGNIFICANT WEATHER AND/OR OBSTRUCTIONS TO VISIBILITY.
      SKY/WX - SKY CONDITION AND SIGNIFICANT WEATHER.
      TMP - AIR TEMPERATURE.    DP   - DEWPOINT TEMPERATURE.
      RH  - RELATIVE HUMIDITY.  PRES - PRESSURE.
      HX  - HEAT INDEX.         WCI  - WIND CHILL INDEX.

*  THESE STATIONS ARE NOT NWS OR FAA STATIONS AND ARE NOT UNDER
   NWS QUALITY CONTROL.

LAZ040-048-061>063-065-066-069-261900-
SOUTHEAST LOUISIANA

CITY           SKY/WX    TMP DP  RH WIND       PRES   REMARKS
N.O. AUDUBON     N/A     64  64 100 MISG        N/A
6HR MIN TEMP:  64; 6HR MAX TEMP:  70; 6HR PCP:  0.20;

N.O. INTL ARPT LGT RAIN  65  59  81 S9        29.92S
6HR MIN TEMP:  65; 6HR MAX TEMP:  70; 6HR PCP:  0.25;

N.O. LAKEFRONT CLOUDY    70  61  73 S15       29.90F
6HR MIN TEMP:  70; 6HR MAX TEMP:  72; 6HR PCP:  0.15;

SLIDELL        CLOUDY    70  68  93 CALM      29.88F
6HR MIN TEMP:  63; 6HR MAX TEMP:  70; 6HR PCP:  0.87;

BATON ROUGE    CLOUDY    71  66  84 S9        29.87F
6HR MIN TEMP:  62; 6HR MAX TEMP:  72;

BOOTHVILLE     LGT RAIN  69  66  90 W7        29.92F
6HR MIN TEMP:  62; 6HR MAX TEMP:  70; 6HR PCP:  0.40;

BELLE CHASSE   RAIN      66  61  84 SW7       29.91F FOG
6HR MIN TEMP:  66; 6HR MAX TEMP:  70;

BOGALUSA*        N/A     72  65  81 S7        29.92S
6HR MIN TEMP:  61; 6HR MAX TEMP:  72;

GALLIANO*      CLOUDY    65  63  96 MISG      29.91F
6HR MIN TEMP:  65; 6HR MAX TEMP:  72; 6HR PCP:  0.45;

NEW ROADS*     MOCLDY    74  63  69 E3        29.87F
6HR MIN TEMP:  59; 6HR MAX TEMP:  74;

GONZALES*      MOCLDY    67  66  96 S7        29.89F
6HR MIN TEMP:  63; 6HR MAX TEMP:  69;

HAMMOND*       CLOUDY    72  66  83 SW3       29.90F
HOUMA*         PTSUNNY   64  63  94 CALM      29.90F FOG
PORT FOURCHON* CLOUDY    68  64  88 N6        29.94F FOG

$$

LAZ041-044-053-054-261900-
SOUTHWEST LOUISIANA

CITY           SKY/WX    TMP DP  RH WIND       PRES   REMARKS
LAKE CHARLES   CLOUDY    72  65  78 NW9       29.87F
6HR MIN TEMP:  63; 6HR MAX TEMP:  74;

LAFAYETTE      CLOUDY    73  65  75 CALM      29.88S
6HR MIN TEMP:  63; 6HR MAX TEMP:  75;

PATTERSON      CLOUDY    63  61  94 W6        29.92S
6HR MIN TEMP:  63; 6HR MAX TEMP:  68;

SALT POINT       N/A     63  61  93 SE9       29.88F
6HR MIN TEMP:  61; 6HR MAX TEMP:  68; 6HR PCP:  0.10;

NEW IBERIA     LGT RAIN  69  64  84 E12       29.87F
6HR MIN TEMP:  63; 6HR MAX TEMP:  76; 6HR PCP:  0.01;

CHENAULT AIRPK CLOUDY    72  64  78 NW10      29.89F

$$

LAZ027-028-261900-
CENTRAL LOUISIANA

CITY           SKY/WX    TMP DP  RH WIND       PRES   REMARKS
FORT POLK      CLOUDY    70  63  78 NW15G22   29.87F
6HR MIN TEMP:  62; 6HR MAX TEMP:  71; 6HR PCP: TRACE;

ALEXANDRIA INT CLOUDY    70  63  78 NW8       29.86F
6HR MIN TEMP:  60; 6HR MAX TEMP:  71;

ALEXANDRIA     CLOUDY    70  62  76 NW6       29.87F
6HR MIN TEMP:  56; 6HR MAX TEMP:  72;


$$

LAZ001-002-261900-
NORTHWEST LOUISIANA

CITY           SKY/WX    TMP DP  RH WIND       PRES   REMARKS
SHREVEPORT     CLOUDY    59  52  77 NW23      29.96F
6HR MIN TEMP:  57; 6HR MAX TEMP:  67; 6HR PCP: TRACE;

BARKSDALE AFB  CLOUDY    59  54  83 NW25      29.95S
6HR MIN TEMP:  57; 6HR MAX TEMP:  66;

DTN SHREVEPORT CLOUDY    57  52  83 NW13G23   29.97S
6HR MIN TEMP:  56; 6HR MAX TEMP:  65; 6HR PCP: TRACE;


$$

LAZ014-016-261900-
NORTHEAST LOUISIANA

CITY           SKY/WX    TMP DP  RH WIND       PRES   REMARKS
MONROE         CLOUDY    67  62  84 W5        29.89S FOG
6HR MIN TEMP:  57; 6HR MAX TEMP:  68;

TALLULAH       CLOUDY    72  59  63 CALM      29.86F
6HR MIN TEMP:  57; 6HR MAX TEMP:  75;


$$




USA.gov is the U.S. government's official web portal to all federal, state and local government web resources and services.